Regional Weather Roundup
Issued by NWS

Home | Current Version | Previous Version | Graphics & Text | Print | Product List | Glossary On
Versions: 1 2 3 4 5 6 7 8 9 10 11 12 13 14 15 16 17 18 19 20 21 22 23 24 25 26 27 28 29 30 31 32 33 34 35 36 37 38 39 40 41 42 43 44 45 46 47 48 49 50
000
ASUS43 KOAX 270510
RWRNE

WEATHER ROUNDUP FOR NEBRASKA
NATIONAL WEATHER SERVICE OMAHA NE
1200 AM CDT FRI MAY 27 2016

NOTES: SATELLITE DATA IS BEING USED TO AUGMENT CLOUD COVER ABOVE
       12000 FEET.
       "FAIR" INDICATES FEW OR NO CLOUDS BELOW 12,000 FEET WITH NO
       SIGNIFICANT WEATHER AND/OR OBSTRUCTIONS TO VISIBILITY.

  * THESE STATIONS DO NOT REPORT WEATHER SUCH AS RAIN...SNOW OR FOG.

NEZ001>004-019>022-054>056-270600-
NEBRASKA PANHANDLE

CITY           SKY/WX    TMP DP  RH WIND       PRES   REMARKS
SCOTTSBLUFF    CLOUDY    53  43  68 W9        29.85S
ALLIANCE       CLOUDY    53  46  77 N8        29.84S
CHADRON        CLOUDY    47  43  86 N5        29.85R
KIMBALL        LGT RAIN  52  45  78 W3        29.88F
SIDNEY         LGT RAIN  50  48  93 W3        29.86F
$$

NEZ057>060-069>072-079>082-270600-
SOUTHWEST NEBRASKA

CITY           SKY/WX    TMP DP  RH WIND       PRES   REMARKS
NORTH PLATTE   RAIN      56  54  93 NW9       29.85R FOG
IMPERIAL       CLOUDY    55  52  89 NW14      29.73R
LEXINGTON      RAIN      57  55  92 SE8       29.78F
MCCOOK         CLOUDY    55  51  86 SE7       29.68F
OGALLALA       LGT RAIN  55  52  91 NE25      29.77F
$$

NEZ005>010-023>029-035>040-094-270600-
NORTH CENTRAL NEBRASKA

CITY           SKY/WX    TMP DP  RH WIND       PRES   REMARKS
VALENTINE      LGT RAIN  57  54  89 S8        29.87R
AINSWORTH      CLOUDY    60  54  80 NW20      29.84R
BROKEN BOW     LGT RAIN  60  57  89 S8        29.83R
O`NEILL        CLOUDY    61  58  91 E6        29.81R
ORD            LGT RAIN  61  57  87 SE9       29.79R
THEDFORD       CLOUDY    59  54  84 N8        29.81S
$$

NEZ041-046>049-061>064-073>077-083>087-270600-
SOUTH CENTRAL NEBRASKA

CITY           SKY/WX    TMP DP  RH WIND       PRES   REMARKS
GRAND ISLAND   TSTM      60  56  86 SE26G32   29.78S
AURORA         TSTM      61  58  91 SE23G31   29.79F
HASTINGS       TSTM      59  56  89 SE22G41   29.81R FOG
HEBRON         TSTM      60  59  97 SE8       29.87R
HOLDREGE       RAIN      58  57  94 E7        29.81S
KEARNEY *      CLOUDY    57  55  94 SE16G25   29.84R
YORK           LGT RAIN  61  59  94 SE20      29.82F
$$

NEZ011>018-030>034-042>045-270600-
NORTHEAST NEBRASKA

CITY           SKY/WX    TMP DP  RH WIND       PRES   REMARKS
NORFOLK        CLOUDY    60  57  89 S9        29.82R
ALBION         CLOUDY    61  56  82 SE16G22   29.80F
BLAIR          CLOUDY    66  56  71 SE21G35   29.78R
FREMONT        CLOUDY    64  54  69 SE10      29.80R
TEKAMAH        CLOUDY    63  52  67 SW8       29.79R
WAYNE          CLOUDY    60  58  91 S9        29.82S
$$

NEZ050>053-065>068-078-088>093-270600-
SOUTHEAST NEBRASKA

CITY           SKY/WX    TMP DP  RH WIND       PRES   REMARKS
LINCOLN        LGT RAIN  63  56  78 S16       29.84R
OMAHA EPPLEY   CLOUDY    66  56  70 SE26G38   29.78R
BEATRICE       RAIN      62  59  91 S10       29.85S
FALLS CITY     HVY RAIN  62  32  32 E24G33    29.81F
NEBRASKA CITY  DRIZZLE   62  61  98 SE8G29    29.81R
PLATTSMOUTH    CLOUDY    64  61  88 SE15      29.81S
$$

NEZ044-045-051>053-067-270600-
OMAHA AREA

CITY           SKY/WX    TMP DP  RH WIND       PRES   REMARKS
OMAHA EPPLEY   CLOUDY    66  56  70 SE26G38   29.78R
BLAIR          CLOUDY    66  56  71 SE21G35   29.78R
FREMONT        CLOUDY    64  54  69 SE10      29.80R
MILLARD        CLOUDY    65  58  80 SE20      29.79R
OFFUTT AFB     CLOUDY    64  59  84 SE17G24   29.79R
PLATTSMOUTH    CLOUDY    64  61  88 SE15      29.81S
WAHOO          CLOUDY    63  56  77 SE16G22   29.81R
$$



USA.gov is the U.S. government's official web portal to all federal, state and local government web resources and services.